This demonstration page uses our WeatherBlox Daily Observations layout. Learn more.

Left ArrowRight Arrow

Hourly Observations for September 14, 2020

Temp ( °F °C ) Dew Point ( °F °C ) Humidity (%) Winds ( mph kmh ) Pressure ( in mb ) Visibility ( mi km ) Precip ( " mm )
12:15 am 00:15 Clear 59 15.2 52 11.1 77 77 SSE 5 7 30.20 1023 10 16 N/A
12:35 am 00:35 Clear 59 14.9 52 11.2 79 79 S 6 9 30.20 1023 10 16 N/A
12:55 am 00:55 Clear 58 14.5 52 11.1 80 80 S 6 9 30.21 1023 10 16 N/A
1:15 am 01:15 Clear 58 14.7 52 11.2 80 80 S 6 9 30.21 1023 10 16 N/A
1:35 am 01:35 Clear 59 14.8 52 11.2 79 79 S 3 6 30.21 1023 10 16 N/A
1:55 am 01:55 Clear 59 15.1 53 11.5 79 79 S 5 7 30.23 1024 10 16 N/A
2:15 am 02:15 Clear 59 14.9 52 11.2 79 79 S 3 6 30.21 1023 10 16 N/A
2:35 am 02:35 Clear 57 13.9 52 11.1 83 83 S 3 6 30.23 1024 10 16 N/A
2:55 am 02:55 Clear 57 13.8 52 11 83 83 S 3 6 30.23 1024 10 16 N/A
3:15 am 03:15 Clear 57 14.1 52 11.3 83 83 SSW 3 6 30.23 1024 10 16 N/A
3:35 am 03:35 Clear 58 14.2 53 11.4 83 83 SSW 3 6 30.23 1024 10 16 N/A
3:55 am 03:55 Clear 56 13.5 52 11 85 85 SSW 5 7 30.23 1024 10 16 N/A
4:15 am 04:15 Clear 57 14.1 53 11.6 85 85 SSW 6 9 30.25 1024 10 16 N/A
4:35 am 04:35 Clear 57 14 53 11.4 84 84 SW 5 7 30.24 1024 10 16 N/A
4:55 am 04:55 Clear 57 13.9 53 11.5 86 86 SW 5 7 30.24 1024 10 16 N/A
5:15 am 05:15 Clear 56 13.3 52 11.3 88 88 SW 3 6 30.24 1024 10 16 N/A
5:35 am 05:35 Clear 56 13.2 52 11.1 87 87 N N/A 30.24 1024 10 16 N/A
5:55 am 05:55 Clear 56 13.1 52 11.3 89 89 N N/A 30.25 1024 10 16 N/A
6:15 am 06:15 Clear 55 12.7 52 11.2 91 91 N N/A 30.25 1024 10 16 N/A
6:35 am 06:35 Clear 52 10.9 49 9.7 92 92 N N/A 30.26 1025 10 16 N/A
6:55 am 06:55 Clear 52 10.9 49 9.6 92 92 N N/A 30.26 1025 10 16 N/A
7:15 am 07:15 Clear 51 10.7 49 9.5 92 92 N N/A 30.28 1025 10 16 N/A
7:35 am 07:35 Sunny 51 10.5 49 9.5 94 94 N N/A 30.29 1026 10 16 N/A
7:55 am 07:55 Sunny 51 10.5 49 9.4 93 93 N N/A 30.31 1026 10 16 N/A
8:15 am 08:15 Sunny 51 10.5 49 9.5 94 94 N N/A 30.32 1027 10 16 N/A
8:35 am 08:35 Sunny 55 12.8 53 11.6 92 92 N N/A 30.30 1026 10 16 N/A
8:55 am 08:55 Sunny 57 14 54 12.4 90 90 N N/A 30.29 1026 10 16 N/A
9:15 am 09:15 Sunny 60 15.3 56 13.2 87 87 N N/A 30.29 1026 10 16 N/A
9:35 am 09:35 Sunny 62 16.5 56 13.6 83 83 N N/A 30.28 1025 10 16 N/A
9:55 am 09:55 Sunny 63 17.4 57 13.8 80 80 N N/A 30.27 1025 10 16 N/A
10:15 am 10:15 Sunny 65 18.2 59 14.8 81 81 SSE 3 6 30.27 1025 10 16 N/A
10:35 am 10:35 Sunny 67 19.4 59 14.9 75 75 S 3 6 30.26 1025 10 16 N/A
10:55 am 10:55 Sunny 69 20.3 59 15 72 72 S 3 6 30.25 1025 10 16 N/A
11:15 am 11:15 Sunny 71 21.6 59 15.1 67 67 N N/A 30.24 1024 10 16 N/A
11:35 am 11:35 Sunny 72 22.3 59 14.8 63 63 S 6 9 30.23 1024 10 16 N/A
11:55 am 11:55 Sunny 74 23.5 58 14.4 57 57 S 3 6 30.22 1023 10 16 N/A
12:15 pm 12:15 Sunny 76 24.4 57 13.8 52 52 S 7 11 30.21 1023 10 16 N/A
12:35 pm 12:35 Sunny 77 25.1 56 13.2 48 48 SSE 8 13 30.20 1023 10 16 N/A
12:55 pm 12:55 Sunny 78 25.3 55 12.5 45 45 SSE 10 17 30.18 1022 10 16 N/A
1:15 pm 13:15 Sunny 78 25.7 55 12.9 45 45 SSE 6 9 30.17 1022 10 16 N/A
1:35 pm 13:35 Sunny 79 26 54 12.4 43 43 SSE 8 13 30.18 1022 10 16 N/A
1:55 pm 13:55 Sunny 79 26.1 54 12.4 43 43 SE 8 13 30.16 1021 10 16 N/A
2:15 pm 14:15 Sunny 80 26.5 54 12.1 41 41 SSE 9 15 30.15 1021 10 16 N/A
2:35 pm 14:35 Sunny 80 26.9 53 11.6 39 39 SSE 10 17 30.14 1021 10 16 N/A
2:55 pm 14:55 Sunny 81 27.2 51 10.5 35 35 SSE 9 15 30.14 1021 10 16 N/A
3:15 pm 15:15 Sunny 81 27.4 49 9.7 33 33 SSE 14 22 30.13 1020 10 16 N/A
3:35 pm 15:35 Sunny 82 27.5 50 9.9 33 33 SSE 9 15 30.12 1020 10 16 N/A
3:55 pm 15:55 Sunny 82 27.7 49 9.6 32 32 SSE 10 17 30.10 1019 10 16 N/A
4:15 pm 16:15 Sunny 82 27.5 50 9.9 33 33 SSE 8 13 30.11 1019 10 16 N/A
4:35 pm 16:35 Sunny 82 27.6 49 9.6 32 32 SSE 9 15 30.09 1019 10 16 N/A
4:55 pm 16:55 Sunny 82 27.5 48 9 31 31 SSE 13 20 30.09 1019 10 16 N/A
5:15 pm 17:15 Sunny 81 27.2 50 9.8 34 34 SSE 10 17 30.08 1019 10 16 N/A
5:35 pm 17:35 Sunny 81 27 49 9.4 33 33 SSE 10 17 30.08 1019 10 16 N/A
5:55 pm 17:55 Sunny 80 26.4 51 10.5 37 37 SSE 8 13 30.08 1019 10 16 N/A
6:15 pm 18:15 Sunny 78 25.6 51 10.6 39 39 SSE 8 13 30.09 1019 10 16 N/A
6:35 pm 18:35 Sunny 76 24.7 52 11.3 43 43 SE 7 11 30.10 1019 10 16 N/A
6:55 pm 18:55 Sunny 74 23.5 54 12 49 49 SE 8 13 30.11 1020 10 16 N/A
7:15 pm 19:15 Sunny 72 22.3 55 12.5 54 54 SE 8 13 30.12 1020 10 16 N/A
7:35 pm 19:35 Sunny 69 20.5 55 12.5 60 60 SE 8 13 30.12 1020 10 16 N/A
7:55 pm 19:55 Clear 66 19 55 12.5 66 66 SE 8 13 30.13 1020 10 16 N/A
8:15 pm 20:15 Clear 65 18.6 54 12.2 67 67 SSE 7 11 30.14 1021 10 16 N/A
8:35 pm 20:35 Clear 65 18.3 54 12 67 67 SSE 6 9 30.15 1021 10 16 N/A
8:55 pm 20:55 Clear 64 18 53 11.5 66 66 SSE 6 9 30.16 1021 10 16 N/A
9:15 pm 21:15 Clear 64 17.6 53 11.7 69 69 SSE 7 11 30.17 1022 10 16 N/A
9:35 pm 21:35 Clear 63 17.2 54 12 72 72 SSE 8 13 30.18 1022 10 16 N/A
9:55 pm 21:55 Clear 63 17.4 54 12.3 72 72 SSE 7 11 30.18 1022 10 16 N/A
10:15 pm 22:15 Clear 63 17 55 12.5 75 75 SSE 6 9 30.19 1022 10 16 N/A
10:35 pm 22:35 Clear 62 16.5 55 12.8 79 79 SSE 7 11 30.20 1023 10 16 N/A
10:55 pm 22:55 Clear 62 16.7 56 13.1 79 79 SSE 8 13 30.19 1022 10 16 N/A
11:15 pm 23:15 Clear 61 16.3 55 13 81 81 SSE 7 11 30.19 1022 10 16 N/A
11:35 pm 23:35 Clear 61 16.2 56 13.1 82 82 SSE 8 13 30.19 1022 10 16 N/A
11:55 pm 23:55 Clear 61 16 55 13 83 83 SSE 8 13 30.19 1022 10 16 N/A

Powered by AerisWeather